Regional Weather Roundup
Issued by NWS

Home | Current Version | Previous Version | Text Only | Print | Product List | Glossary Off
Versions: 1 2 3 4 5 6 7 8 9 10 11 12 13 14 15 16 17 18 19 20 21 22 23 24 25 26 27 28 29 30 31 32 33 34 35 36 37 38 39 40 41 42 43 44 45 46 47 48 49 50

000
ASUS43 KDMX 011207
RWRIA

WEATHER ROUNDUP FOR IOWA
NATIONAL WEATHER SERVICE DES MOINES IA
700 AM CDT MON SEP 01 2014

NOTE: "FAIR" INDICATES FEW OR NO CLOUDS BELOW 12,000 FEET WITH NO
SIGNIFICANT WEATHER AND/OR OBSTRUCTIONS TO VISIBILITY.

* - THESE STATIONS ARE NOT NWS STATIONS...THUS NOT UNDER NWS
QUALITY CONTROL.  THEY ALSO DO NOT REPORT WEATHER SUCH
AS PRECIPITATION OR FOG.

IAZ001>003-012>014-020>022-031>034-043>046-011300-
   NORTHWEST IOWA

CITY           SKY/WX    TMP DP  RH WIND       PRES   REMARKS
CARROLL *      MOCLDY    66  64  94 SW5       29.73R FOG
CHEROKEE *     PTCLDY    61  61 100 CALM      29.73R
DENISON *      CLOUDY    66  66 100 W5        29.74R
LE MARS *      CLEAR     61  59  94 S3        29.75R
ORANGE CITY *  CLEAR     61  57  88 W5        29.74R
SHELDON *      PTCLDY    59  59 100 W5        29.72R
SIOUX CITY     PTCLDY    60  58  92 W5        29.76R
6HR MIN TEMP:  60; 6HR MAX TEMP:  64;

SPENCER        PTCLDY    62  61  96 W6        29.72R
6HR MIN TEMP:  62; 6HR MAX TEMP:  65; 6HR PCP:  0.01;

STORM LAKE *   CLEAR     61  61 100 W8        29.74R FOG
$$

IAZ055>058-069>071-079>083-090>094-011300-
   SOUTHWEST IOWA

CITY           SKY/WX    TMP DP  RH WIND       PRES   REMARKS
ATLANTIC *     CLOUDY    66  66 100 SW8       29.75S
AUDUBON *      CLEAR     68  64  88 SW3       29.76R
CLARINDA *     CLOUDY    68  66  94 SW8       29.81R
COUNCIL BLFS * CLOUDY    66  66 100 SW5       29.76R
CRESTON *      CLOUDY    66  64  94 SW14      29.79R
HARLAN  *      CLEAR     64  64 100 SW5       29.79R
LAMONI         CLOUDY    65  63  93 SW10      29.79R
6HR MIN TEMP:  65; 6HR MAX TEMP:  68; 6HR PCP:  0.01;

SHENANDOAH *   CLOUDY    68  66  94 SW12G18   29.79R
$$

IAZ047>049-059>061-072>074-084-011300-
   CENTRAL IOWA

CITY           SKY/WX    TMP DP  RH WIND       PRES   REMARKS
AMES           CLOUDY    67  65  93 SW13G21   29.73R
6HR MIN TEMP:  65; 6HR MAX TEMP:  67; 6HR PCP:  0.01;

ANKENY *       CLOUDY    70  64  83 SW12G23   29.74R
CHARITON *     CLOUDY    66  64  94 SW12      29.78R
DES MOINES     CLOUDY    70  63  78 SW15      29.74R
6HR MIN TEMP:  67; 6HR MAX TEMP:  74;

GRINNELL*      LGT RAIN  66  63  88 S7        29.76R
KNOXVILLE *    CLOUDY    68  63  83 SW10      29.76R
MARSHALLTOWN   CLOUDY    66  64  93 S14       29.72S FOG
6HR MIN TEMP:  65; 6HR MAX TEMP:  66; 6HR PCP:  0.01;

PELLA *        CLOUDY    67  65  96 W7        29.77R
PERRY *        CLOUDY    66  66 100 SW7       29.74R
$$

IAZ004>006-015-016-023>025-035-036-011300-
   NORTH CENTRAL IOWA

CITY           SKY/WX    TMP DP  RH WIND       PRES   REMARKS
ALGONA *       CLOUDY    66  64  94 W8        29.71R FOG
CLARION *      CLOUDY    66  66 100 SW9       29.70R
ESTHERVILLE    PTCLDY    63  62  97 W5        29.70R FOG
6HR MIN TEMP:  62; 6HR MAX TEMP:  64;

FORT DODGE *   CLOUDY    66  64  94 SW7       29.72R
MASON CITY     LGT RAIN  66  65  96 SW12      29.71R
6HR MIN TEMP:  63; 6HR MAX TEMP:  66; 6HR PCP:  0.04;

FOREST CITY *  CLOUDY    66  66 100 CALM      29.70R
IOWA FALLS *   CLOUDY    66  64  94 SW10      29.73R
$$

IAZ007>011-017>019-026>030-037>042-050>054-066-011300-
   NORTHEAST IOWA

CITY           SKY/WX    TMP DP  RH WIND       PRES   REMARKS
CEDAR RAPIDS   CLOUDY    64  64 100 S8        29.73S
6HR MIN TEMP:  64; 6HR MAX TEMP:  65; 6HR PCP:  0.40;

CHARLES CITY * CLOUDY    64  64 100 S12       29.71R FOG
CLINTON *      CLOUDY    64  63  94 SW9       29.79R
DECORAH *      MOCLDY    64  63  94 S8G14     29.69S
DUBUQUE        CLOUDY    64  62  93 SW9G22    29.73R
6HR MIN TEMP:  64; 6HR MAX TEMP:  69; 6HR PCP:  0.29;

MONTICELLO *   PTCLDY    64  64 100 SW6       29.74R
OELWEIN *      CLOUDY    64  64 100 S9        29.72S
WATERLOO       CLOUDY    66  63  90 S10       29.70S
6HR MIN TEMP:  64; 6HR MAX TEMP:  66; 6HR PCP:  0.09;

$$

IAZ064-065-067-068-078-011300-
   EAST CENTRAL IOWA

CITY           SKY/WX    TMP DP  RH WIND       PRES   REMARKS
DAVENPORT      CLOUDY    65  63  93 SW3       29.77R
6HR MIN TEMP:  65; 6HR MAX TEMP:  76; 6HR PCP:  0.27;

IOWA CITY      CLOUDY    65  65 100 S8        29.76R
6HR MIN TEMP:  65; 6HR MAX TEMP:  66; 6HR PCP:  0.50;

MT. PLEASANT * CLOUDY    67  66  95 S9        29.69F
MUSCATINE *    MOCLDY    66  64  94 SE8       29.72F
QUAD CITIES    CLOUDY    67  64  90 W6        29.76R
6HR MIN TEMP:  65; 6HR MAX TEMP:  76; 6HR PCP:  0.30;

$$

IAZ062-063-075>077-085>089-095>099-011300-
   SOUTHEAST IOWA

CITY           SKY/WX    TMP DP  RH WIND       PRES   REMARKS
BURLINGTON     LGT RAIN  67  50  55 S12       29.74F
6HR MIN TEMP:  67; 6HR MAX TEMP:  76; 6HR PCP:  0.03;

FAIRFIELD *    MOCLDY    68  64  88 W7        29.77R
FORT MADISON * LGT RAIN  70  70 100 SE12      29.69F
KEOKUK *       LGT RAIN  68  66  94 SE16      29.67F
OSKALOOSA *      N/A     64  63  96 SW6       29.77R
CENTERVILLE *  CLEAR     64  64 100 W6        29.80R
OTTUMWA        CLOUDY    65  63  93 SW5       29.76R
6HR MIN TEMP:  65; 6HR MAX TEMP:  67; 6HR PCP:  0.07;

WASHINGTON *   CLOUDY    68  66  94 W6G13     29.77R
$$

ABBREVIATIONS USED IN REMARKS
   TC - TEMPERATURES IN CELSIUS
  WCI - WIND CHILL INDEX
   HX - HEAT INDEX
  VSB - VISIBILITY
$$



USA.gov is the U.S. government's official web portal to all federal, state and local government web resources and services.